Weather History for Holdrege, NE

Change the Weather History Date:

Thursday, April 24, 2014

  Actual Average Record
Temperature  
Mean Temperature 58 °F -  
Max Temperature 69 °F 68 °F 92 °F (1989)
Min Temperature 48 °F 40 °F 23 °F (1967)
Degree Days  
Heating Degree Days 6    
Growing Degree Days 8 (Base 50)    
Moisture  
Dew Point 33 °F    
Average Humidity 46    
Maximum Humidity 86    
Minimum Humidity 14    
Precipitation  
Precipitation 0.15 in - - ()
Sea Level Pressure  
Sea Level Pressure 29.80 in    
Wind  
Wind Speed 12 mph (NW)    
Max Wind Speed 28 mph    
Max Gust Speed 36 mph    
Visibility 10 miles    
Events Rain , Thunderstorm    
Averages and records for this station are not official NWS values.
T = Trace of Precipitation, MM = Missing Value Source: NWS Daily Summary

Daily Weather History Graph

Daily Weather History Graph

Search for Another Location

Airport:

Trip Planner

Search our weather history database for the weather conditions in past years. The results will help you decide how hot, cold, wet, or windy it might be!

Date:

Astronomy

Apr. 24, 2014 Rise Set
Actual Time 6:45 AM CDT 8:25 PM CDT
Civil Twilight 6:16 AM CDT 8:54 PM CDT
Nautical Twilight 5:41 AM CDT 9:29 PM CDT
Astronomical Twilight 5:04 AM CDT 10:07 PM CDT
Moon 3:58 AM CDT (4/24) 3:42 PM CDT (4/24)
Length of Visible Light 14h 38m
Length of Day
13h 40m
Waning Crescent, 24% of the Moon is Illuminated
Apr 24
Waning Crescent
Apr 29
New
May 6
First Quarter
May 14
Full
May 21
Last Quarter

Hourly Weather History & Observations

Time (CDT) Temp. Dew Point Humidity Pressure Visibility Wind Dir Wind Speed Gust Speed Precip Events Conditions
12:15 AM 55.6 °F 48.6 °F 77% 29.65 in 10.0 mi North 15.0 mph - 0.01 in Rain Rain
12:35 AM 55.4 °F 49.3 °F 80% 29.67 in 10.0 mi NNE 11.5 mph - 0.02 in Rain , Thunderstorm Light Thunderstorms and Rain
12:55 AM 55.4 °F 49.8 °F 81% 29.70 in 10.0 mi NNW 6.9 mph - 0.04 in Rain Light Rain
1:15 AM 54.5 °F 50.4 °F 86% 29.74 in 10.0 mi WNW 5.8 mph - 0.04 in Rain Rain
1:35 AM 54.3 °F 49.3 °F 83% 29.76 in 10.0 mi NW 10.4 mph - 0.07 in Rain Rain
1:55 AM 53.8 °F 47.5 °F 79% 29.76 in 10.0 mi NW 15.0 mph - 0.10 in Rain Light Rain
2:15 AM 53.6 °F 41.0 °F 62% 29.74 in 10.0 mi North 27.6 mph 35.7 mph 0.01 in Rain Light Rain
2:35 AM 52.3 °F 44.6 °F 75% 29.74 in 10.0 mi NNW 15.0 mph 20.7 mph 0.01 in Rain Light Rain
2:55 AM 51.8 °F 44.6 °F 76% 29.73 in 10.0 mi NNW 10.4 mph 18.4 mph 0.01 in   Scattered Clouds
3:15 AM 52.2 °F 44.1 °F 74% 29.72 in 10.0 mi NNW 10.4 mph - N/A   Clear
3:35 AM 51.3 °F 44.6 °F 78% 29.72 in 10.0 mi NNW 10.4 mph - N/A   Clear
3:55 AM 52.2 °F 42.8 °F 70% 29.73 in 10.0 mi NNW 15.0 mph 19.6 mph N/A   Scattered Clouds
4:15 AM 52.5 °F 42.1 °F 68% 29.73 in 10.0 mi North 12.7 mph - N/A   Mostly Cloudy
4:35 AM 50.9 °F 43.2 °F 75% 29.73 in 10.0 mi North 9.2 mph - N/A   Mostly Cloudy
4:55 AM 51.1 °F 43.2 °F 74% 29.74 in 10.0 mi NW 9.2 mph - N/A   Overcast
5:15 AM 50.0 °F 44.2 °F 81% 29.74 in 10.0 mi NW 10.4 mph - N/A   Overcast
5:35 AM 50.9 °F 43.2 °F 75% 29.75 in 10.0 mi NW 12.7 mph - N/A   Overcast
5:55 AM 50.4 °F 42.6 °F 75% 29.76 in 10.0 mi NW 15.0 mph - N/A   Overcast
6:15 AM 50.9 °F 41.2 °F 69% 29.77 in 10.0 mi NW 13.8 mph - N/A   Overcast
6:35 AM 50.5 °F 40.8 °F 69% 29.77 in 10.0 mi NNW 10.4 mph - N/A   Overcast
6:55 AM 50.7 °F 40.3 °F 67% 29.77 in 10.0 mi NNW 11.5 mph - N/A   Overcast
7:15 AM 50.0 °F 40.3 °F 69% 29.78 in 10.0 mi NNW 11.5 mph - N/A   Overcast
7:35 AM 49.5 °F 40.5 °F 71% 29.79 in 10.0 mi NW 10.4 mph - N/A   Scattered Clouds
7:55 AM 48.6 °F 40.5 °F 74% 29.79 in 10.0 mi NW 11.5 mph - N/A   Scattered Clouds
8:15 AM 49.5 °F 40.1 °F 70% 29.80 in 10.0 mi NNW 11.5 mph 17.3 mph N/A   Scattered Clouds
8:35 AM 50.5 °F 41.0 °F 70% 29.81 in 10.0 mi NNW 11.5 mph 16.1 mph N/A   Clear
8:55 AM 52.2 °F 39.4 °F 62% 29.81 in 10.0 mi NNW 16.1 mph - N/A   Clear
9:15 AM 53.1 °F 38.8 °F 59% 29.82 in 10.0 mi NNW 13.8 mph 23.0 mph N/A   Clear
9:35 AM 53.2 °F 39.4 °F 59% 29.82 in 10.0 mi NNW 13.8 mph 20.7 mph N/A   Clear
9:55 AM 54.5 °F 39.0 °F 56% 29.83 in 10.0 mi North 15.0 mph 20.7 mph N/A   Clear
10:15 AM 57.2 °F 38.5 °F 50% 29.83 in 10.0 mi NNW 17.3 mph 25.3 mph N/A   Clear
10:35 AM 57.4 °F 36.5 °F 46% 29.83 in 10.0 mi NNW 18.4 mph 23.0 mph N/A   Clear
10:55 AM 58.5 °F 36.1 °F 43% 29.83 in 10.0 mi NNW 17.3 mph 25.3 mph N/A   Clear
11:15 AM 59.9 °F 33.6 °F 37% 29.84 in 10.0 mi North 20.7 mph 27.6 mph N/A   Clear
11:35 AM 60.3 °F 32.0 °F 34% 29.85 in 10.0 mi North 17.3 mph 28.8 mph N/A   Clear
11:55 AM 61.3 °F 33.3 °F 35% 29.85 in 10.0 mi North 17.3 mph 26.5 mph N/A   Clear
12:15 PM 61.9 °F 30.6 °F 31% 29.85 in 10.0 mi NNW 17.3 mph 24.2 mph N/A   Clear
12:35 PM 63.5 °F 30.9 °F 29% 29.86 in 10.0 mi North 15.0 mph 23.0 mph N/A   Clear
12:55 PM 63.5 °F 27.9 °F 26% 29.85 in 10.0 mi North 16.1 mph 25.3 mph N/A   Clear
1:15 PM 64.2 °F 26.6 °F 24% 29.85 in 10.0 mi NNW 12.7 mph 25.3 mph N/A   Clear
1:35 PM 65.3 °F 27.0 °F 24% 29.84 in 10.0 mi NNW 21.9 mph 28.8 mph N/A   Clear
1:55 PM 65.5 °F 23.7 °F 21% 29.84 in 10.0 mi NNW 13.8 mph 25.3 mph N/A   Clear
2:15 PM 65.8 °F 24.1 °F 21% 29.83 in 10.0 mi North 12.7 mph 21.9 mph N/A   Clear
2:35 PM 66.4 °F 24.3 °F 20% 29.83 in 10.0 mi NNW 16.1 mph 23.0 mph N/A   Clear
2:55 PM 66.9 °F 21.2 °F 18% 29.83 in 10.0 mi NNW 15.0 mph 26.5 mph N/A   Clear
3:15 PM 67.1 °F 21.2 °F 17% 29.83 in 10.0 mi NNW 12.7 mph 21.9 mph N/A   Clear
3:35 PM 67.6 °F 21.7 °F 18% 29.83 in 10.0 mi NNW 16.1 mph 23.0 mph N/A   Clear
3:55 PM 68.9 °F 23.0 °F 18% 29.82 in 10.0 mi NNW 11.5 mph 18.4 mph N/A   Clear
4:15 PM 68.2 °F 21.0 °F 17% 29.81 in 10.0 mi NNW 15.0 mph 23.0 mph N/A   Clear
4:35 PM 68.9 °F 19.0 °F 15% 29.81 in 10.0 mi North 10.4 mph 25.3 mph N/A   Clear
4:55 PM 69.3 °F 19.4 °F 15% 29.80 in 10.0 mi NNW 11.5 mph 18.4 mph N/A   Clear
5:15 PM 68.9 °F 19.4 °F 15% 29.79 in 10.0 mi WNW 9.2 mph - N/A   Clear
5:35 PM 69.3 °F 19.9 °F 15% 29.80 in 10.0 mi NNW 10.4 mph 16.1 mph N/A   Clear
5:55 PM 68.9 °F 18.0 °F 14% 29.80 in 10.0 mi WNW 10.4 mph 16.1 mph N/A   Clear
6:15 PM 68.2 °F 19.0 °F 15% 29.80 in 10.0 mi NW 12.7 mph 24.2 mph N/A   Clear
6:35 PM 67.6 °F 22.6 °F 18% 29.80 in 10.0 mi NW 10.4 mph 17.3 mph N/A   Clear
6:55 PM 68.2 °F 22.5 °F 18% 29.80 in 10.0 mi West 9.2 mph - N/A   Clear
7:15 PM 67.6 °F 20.8 °F 17% 29.80 in 10.0 mi WNW 5.8 mph - N/A   Clear
7:35 PM 66.2 °F 22.3 °F 19% 29.81 in 10.0 mi WNW 8.1 mph - N/A   Clear
7:55 PM 64.0 °F 24.4 °F 22% 29.82 in 10.0 mi WNW 4.6 mph - N/A   Clear
8:15 PM 60.1 °F 28.9 °F 31% 29.82 in 10.0 mi West 5.8 mph - N/A   Clear
8:35 PM 57.4 °F 27.5 °F 32% 29.83 in 10.0 mi West 5.8 mph - N/A   Clear
8:55 PM 57.6 °F 27.0 °F 31% 29.83 in 10.0 mi WSW 4.6 mph - N/A   Clear
9:15 PM 56.5 °F 28.4 °F 34% 29.84 in 10.0 mi WSW 5.8 mph - N/A   Clear
9:35 PM 55.2 °F 26.4 °F 33% 29.84 in 10.0 mi WSW 5.8 mph - N/A   Clear
9:55 PM 55.9 °F 27.3 °F 33% 29.84 in 10.0 mi Calm Calm - N/A   Clear
10:15 PM 52.5 °F 30.7 °F 43% 29.84 in 10.0 mi WSW 4.6 mph - N/A   Clear
10:35 PM 54.7 °F 27.0 °F 34% 29.85 in 10.0 mi SW 5.8 mph - N/A   Clear
10:55 PM 53.2 °F 27.0 °F 36% 29.85 in 10.0 mi SW 4.6 mph - N/A   Clear
11:15 PM 51.8 °F 28.2 °F 40% 29.85 in 10.0 mi SW 4.6 mph - N/A   Clear
11:35 PM 51.4 °F 27.9 °F 40% 29.85 in 10.0 mi SW 6.9 mph - N/A   Clear
11:55 PM 52.7 °F 25.9 °F 35% 29.85 in 10.0 mi SW 8.1 mph - N/A   Clear